User: anonymous   Login
Location: Fort Wayne
(41.1310°N, 85.1290°W)
Time: 10:34:55
(UTC-05:00)
Language:

Cosmos 1000 Rocket - Orbit

View from above orbital plane
View from above orbital plane
View from above satellite
View from above satellite

Ground track
Ground track

The orbit data is extracted from the following two-line orbital elements,

1 10777U 78034B   14355.90780656  .00000029  00000-0  13967-4 0  4090
2 10777 082.9412 186.1037 0025609 219.7523 252.1036 13.77322107845354
Epoch (UTC): 21 December 2014 21:47:14
Eccentricity: 0.0025609
inclination: 82.9412°
perigee height: 954 km
apogee height: 992 km
right ascension of ascending node: 186.1037°
argument of perigee: 219.7523°
revolutions per day: 13.77322107
mean anomaly at epoch: 252.1036°
orbit number at epoch: 84535

The dashed part of the orbit path shows where the satellite is in the earth's shadow,  

DLR